[[{"header":{"parameterUnit":"m.s-1","parameterCategory":1,"la1":30.2991,"la2":30.254,"lo1":-89.0895,"lo2":-89.0444,"dy":0.0017,"dx":0.0017,"nx":28,"ny":28,"refTime":"2026-02-11T09:00:00:Z","depth":0,"parameterNumber":2,"parameterNumberName":"U-component_of_WINDS"},"data":[0,0,0,0,0,0,0,0,0,0,0,0,0,0,0,0,0,0,0,0,0,0,0,0,0,0,0,0,0,0,0,0,0,0,0,0,0,0,0,0,0,0,0,0,0,0,0,0,0,0,0,0,0,0,0,0,0,0,1.1153,1.1155,0,1.1297,1.1299,1.1301,1.126,1.1257,1.1254,1.1251,1.141,1.1417,1.1424,0,0,0,0,0,0,0,0,0,0,0,0,0,1.0854,1.0859,1.1153,1.1155,1.1157,1.1297,1.1299,1.1301,1.1261,1.1257,1.1254,1.125,1.1408,1.1416,1.1424,0,0,0,0,0,0,0,0,0,0,0,0,0,1.099,1.0861,1.1153,1.1153,1.1155,1.1297,1.1299,1.1302,1.1261,1.1257,1.1253,1.1248,1.1405,1.1415,1.1426,1.1579,0,0,1.1458,1.1462,0,0,0,0,0,0,0,0,1.0982,1.1001,1.1151,1.1153,1.1155,1.1256,1.1252,1.1395,1.1263,1.1221,1.1251,1.1246,1.1363,1.1377,1.1414,1.1587,1.1594,1.1458,1.1465,1.1469,1.1472,0,0,0,0,0,0,0,1.0973,1.0994,1.1211,1.1154,1.1156,1.115,1.1164,1.1279,1.1316,1.1225,1.1222,1.1239,1.1363,1.1404,1.1417,1.1596,1.1458,1.1468,1.1474,1.1478,1.1905,1.191,0,0,0,0,0,0,1.096,1.0987,1.1206,1.1215,1.1056,1.1159,1.1175,1.1228,1.1314,1.1323,1.1243,1.1237,1.1388,1.1405,1.1423,1.161,1.1469,1.1479,1.1485,1.19,1.1906,1.1912,0,0,0,0,0,0,1.0954,1.098,1.12,1.11,1.1128,1.1169,1.1229,1.1234,1.1274,1.1328,1.1335,1.1276,1.1385,1.1408,1.1541,1.1615,1.1484,1.1493,1.1894,1.1902,1.1909,1.1986,0,0,0,0,0,0,1.0946,1.0978,1.1034,1.1102,1.1133,1.1312,1.1234,1.124,1.1291,1.1284,1.1362,1.137,1.1384,1.1525,1.1551,1.1627,1.1502,1.1888,1.1898,1.1907,1.1977,1.1995,1.201,0,0,0,0,0,1.0935,1.1052,1.1037,1.1064,1.1204,1.1317,1.1335,1.1345,1.1297,1.1356,1.1391,1.1368,1.1602,1.1539,1.1568,1.1648,1.1883,1.1895,1.1906,1.1969,1.1991,1.201,0,0,0,0,0,0,1.0996,1.1061,1.1045,1.1187,1.1246,1.1309,1.1384,1.1368,1.1445,1.1436,1.1448,1.1466,1.1602,1.1638,1.1567,1.1803,1.1736,1.1754,1.1775,1.1796,1.1813,1.1802,1.151,0,0,0,0,0,1.1025,1.1108,1.1162,1.1282,1.1312,1.1343,1.1393,1.1395,1.1458,1.1484,1.1529,1.1594,1.1683,1.1741,1.1825,1.1981,1.1999,1.2051,1.2068,1.2081,1.2098,1.2185,1.221,1.1949,1.1949,1.1949,0,0,1.1089,1.1134,1.1186,1.1295,1.1341,1.1431,1.1364,1.1461,1.1529,1.15,1.1627,1.1662,1.1737,1.1882,1.1948,1.1916,1.2173,1.2096,1.2106,1.2115,1.2199,1.2224,1.2246,1.1957,1.1955,1.1954,0,0,1.1249,1.129,1.1395,1.1442,1.1512,1.1532,1.1557,1.1623,1.1644,1.1771,1.1752,1.1834,1.1986,1.204,1.2087,1.2269,1.2252,1.2296,1.2386,1.2471,1.2491,1.251,1.2577,1.2601,1.2311,1.2312,1.2312,0,1.1319,1.1449,1.1452,1.1551,1.1601,1.1575,1.1684,1.1731,1.1826,1.1863,1.1825,1.2016,1.2064,1.2222,1.2266,1.2305,1.2337,1.2288,1.2487,1.2506,1.2523,1.2588,1.2613,1.2317,1.2316,1.2316,1.2315,0,1.1533,1.1624,1.1701,1.179,1.1849,1.1953,1.1975,1.2035,1.2032,1.2057,1.2189,1.2245,1.2341,1.2379,1.2379,1.2539,1.2517,1.2483,1.2417,1.2553,1.2614,1.2638,1.2324,1.2322,1.2321,1.2319,0,0,1.1737,1.1826,1.1855,1.1896,1.1971,1.2043,1.2147,1.2237,1.229,1.2356,1.2446,1.2575,1.2544,1.2598,1.2604,1.2678,1.2821,1.2636,1.2638,1.267,1.3005,1.3031,1.3059,1.2809,1.2814,1.2818,1.2999,0,1.1906,1.2084,1.209,1.2255,1.2341,1.2318,1.2409,1.2467,1.2494,1.2573,1.2604,1.2695,1.2646,1.2679,1.2751,1.2788,1.2889,1.2775,1.2897,1.2902,1.2881,1.3091,1.3119,1.3288,1.3023,1.3027,1.303,0,1.2126,1.2196,1.2369,1.2432,1.2469,1.255,1.2634,1.2709,1.2776,1.279,1.285,1.2845,1.2955,1.2883,1.3037,1.296,1.301,1.3036,1.3043,1.3057,1.2975,1.3113,1.3341,1.3368,1.3067,1.3064,1.3061,0,1.226,1.2399,1.252,1.2555,1.2632,1.269,1.2726,1.2787,1.2842,1.2917,1.2953,1.3042,1.3091,1.3161,1.3181,1.3126,1.3336,1.3265,1.3355,1.3354,1.3402,1.3399,1.3644,1.343,1.343,1.3429,1.3429,0,1.2449,1.2556,1.2581,1.2656,1.2777,1.2785,1.2905,1.2937,1.2992,1.3076,1.3062,1.3142,1.3162,1.3247,1.3264,1.3391,1.3413,1.343,1.3434,1.3433,1.3431,1.3468,1.3458,1.3436,1.3435,1.3433,1.3432,0,1.262,1.2641,1.2772,1.2833,1.2851,1.2938,1.2992,1.3066,1.309,1.3196,1.3222,1.3262,1.3361,1.3387,1.3506,1.3518,1.3668,1.366,1.3645,1.3645,1.3734,1.3726,1.4013,1.4053,1.3811,1.3813,1.3815,0,1.274,1.2822,1.2891,1.2944,1.2981,1.3068,1.3123,1.3135,1.3193,1.3275,1.3341,1.3437,1.3515,1.3675,1.3717,1.3809,1.3805,1.3899,1.3819,1.3815,1.3809,1.3805,1.3815,1.3915,1.3917,1.3919,1.3921,0,1.2952,1.2958,1.3036,1.3118,1.3183,1.3249,1.3313,1.3358,1.338,1.3447,1.3546,1.3606,1.3727,1.3825,1.3917,1.3958,1.3946,1.3945,1.3972,1.3973,1.3961,1.3971,1.3689,1.394,1.3938,1.3936,1.3935,1.3935,1.3103,1.3175,1.3235,1.3323,1.3371,1.3431,1.3504,1.3536,1.3618,1.3714,1.3717,1.3826,1.3894,1.4016,1.4062,1.415,1.4122,1.4159,1.4169,1.4179,1.4188,1.3945,1.4167,1.4166,1.4166,1.4165,1.4165,0,1.3316,1.3353,1.3434,1.3521,1.3592,1.3568,1.3638,1.37,1.3794,1.3856,1.3932,1.4048,1.4143,1.4191,1.4286,1.4348,1.4344,1.4373,1.437,1.438,1.4206,1.4175,1.4374,1.4374,1.4374,1.4374,1.4374,1.4374,1.3435,1.3556,1.357,1.3716,1.3754,1.3857,1.3899,1.3956,1.4005,1.4134,1.4211,1.4241,1.4299,1.4398,1.4485,1.4497,1.4534,1.4566,1.4576,1.4413,1.4392,1.4372,1.4343,1.4574,1.4574,1.4743,1.4744,1.4746]},{"header":{"parameterUnit":"m.s-1","parameterCategory":1,"la1":30.2991,"la2":30.254,"lo1":-89.0895,"lo2":-89.0444,"dy":0.0017,"dx":0.0017,"nx":28,"ny":28,"refTime":"2026-02-11T09:00:00:Z","depth":0,"parameterNumber":3,"parameterNumberName":"V-component_of_WINDS"},"data":[0,0,0,0,0,0,0,0,0,0,0,0,0,0,0,0,0,0,0,0,0,0,0,0,0,0,0,0,0,0,0,0,0,0,0,0,0,0,0,0,0,0,0,0,0,0,0,0,0,0,0,0,0,0,0,0,0,0,-1.6331,-1.6331,0,-1.6325,-1.6325,-1.6325,-1.6356,-1.6357,-1.6358,-1.6359,-1.6347,-1.6346,-1.6345,0,0,0,0,0,0,0,0,0,0,0,0,0,-1.6366,-1.6366,-1.6331,-1.6331,-1.6331,-1.6325,-1.6325,-1.6325,-1.6356,-1.6357,-1.6358,-1.6359,-1.6347,-1.6346,-1.6344,0,0,0,0,0,0,0,0,0,0,0,0,0,-1.6355,-1.6365,-1.6331,-1.6346,-1.6348,-1.6325,-1.6325,-1.6325,-1.6356,-1.6357,-1.6359,-1.636,-1.6348,-1.6346,-1.6344,-1.6305,0,0,-1.6339,-1.6338,0,0,0,0,0,0,0,0,-1.6355,-1.6353,-1.6344,-1.6345,-1.6347,-1.6343,-1.6333,-1.6318,-1.6355,-1.6352,-1.6359,-1.636,-1.6344,-1.6343,-1.6338,-1.6305,-1.6304,-1.6339,-1.6338,-1.6337,-1.6336,0,0,0,0,0,0,0,-1.6356,-1.6354,-1.6329,-1.6344,-1.6345,-1.6352,-1.6352,-1.633,-1.634,-1.6353,-1.6355,-1.6354,-1.6345,-1.634,-1.6338,-1.6304,-1.6339,-1.6337,-1.6336,-1.6335,-1.6239,-1.6237,0,0,0,0,0,0,-1.6356,-1.6354,-1.6329,-1.6328,-1.6355,-1.635,-1.635,-1.6343,-1.6341,-1.6342,-1.6353,-1.6356,-1.6342,-1.634,-1.6338,-1.6292,-1.6337,-1.6335,-1.6334,-1.624,-1.6238,-1.6237,0,0,0,0,0,0,-1.6356,-1.6353,-1.6329,-1.6342,-1.6339,-1.6348,-1.6339,-1.6342,-1.6337,-1.6341,-1.6342,-1.6346,-1.6343,-1.634,-1.6314,-1.6292,-1.6334,-1.6333,-1.6242,-1.624,-1.6237,-1.6201,0,0,0,0,0,0,-1.6357,-1.6353,-1.6339,-1.6342,-1.6339,-1.6306,-1.6338,-1.6341,-1.6334,-1.6338,-1.6335,-1.6336,-1.6344,-1.6316,-1.6312,-1.6291,-1.6331,-1.6244,-1.6241,-1.6238,-1.6204,-1.6198,-1.6192,0,0,0,0,0,-1.6358,-1.6328,-1.6339,-1.6335,-1.6322,-1.6305,-1.6303,-1.6315,-1.6332,-1.6318,-1.6321,-1.6336,-1.6296,-1.6313,-1.6309,-1.6287,-1.6245,-1.6242,-1.6238,-1.6207,-1.6199,-1.6193,0,0,0,0,0,0,-1.6321,-1.6329,-1.634,-1.6311,-1.6307,-1.6311,-1.6293,-1.6306,-1.6297,-1.63,-1.6313,-1.6312,-1.6283,-1.6282,-1.6302,-1.6249,-1.6273,-1.6269,-1.6251,-1.6243,-1.6238,-1.6238,-1.633,0,0,0,0,0,-1.631,-1.6298,-1.6304,-1.6277,-1.6275,-1.6284,-1.6277,-1.6287,-1.6283,-1.6281,-1.6282,-1.6276,-1.6263,-1.6253,-1.624,-1.6204,-1.6204,-1.6187,-1.6181,-1.6176,-1.6172,-1.6152,-1.6145,-1.6226,-1.6226,-1.6226,0,0,-1.6286,-1.6289,-1.6279,-1.627,-1.6268,-1.6253,-1.6283,-1.6265,-1.6254,-1.6278,-1.6253,-1.6254,-1.6248,-1.6217,-1.6203,-1.6215,-1.615,-1.6172,-1.6168,-1.6166,-1.6148,-1.6141,-1.6134,-1.6223,-1.6224,-1.6224,0,0,-1.6235,-1.6236,-1.6214,-1.6212,-1.621,-1.6217,-1.6211,-1.6213,-1.6214,-1.619,-1.6208,-1.6194,-1.617,-1.6165,-1.616,-1.6108,-1.6121,-1.6103,-1.6072,-1.6053,-1.6046,-1.6041,-1.6022,-1.6015,-1.6099,-1.6099,-1.6099,0,-1.6205,-1.6185,-1.62,-1.6182,-1.6177,-1.62,-1.6177,-1.6174,-1.6167,-1.6162,-1.6176,-1.6147,-1.6145,-1.6113,-1.61,-1.6095,-1.6088,-1.6103,-1.6046,-1.6041,-1.6036,-1.6018,-1.601,-1.6097,-1.6097,-1.6097,-1.6097,0,-1.6148,-1.6133,-1.6115,-1.611,-1.6103,-1.6082,-1.6093,-1.6084,-1.6094,-1.6098,-1.6073,-1.6072,-1.6059,-1.6053,-1.6061,-1.6021,-1.6029,-1.6045,-1.6069,-1.6026,-1.6009,-1.6002,-1.6093,-1.6094,-1.6095,-1.6095,0,0,-1.6072,-1.6077,-1.607,-1.6068,-1.6068,-1.6057,-1.6037,-1.6026,-1.6018,-1.6012,-1.5995,-1.5975,-1.5989,-1.5983,-1.5992,-1.5975,-1.5933,-1.5993,-1.5993,-1.5981,-1.5888,-1.5876,-1.5868,-1.5942,-1.5941,-1.594,-1.5888,0,-1.6022,-1.599,-1.6004,-1.5969,-1.5956,-1.5978,-1.596,-1.5957,-1.5961,-1.5949,-1.5952,-1.5938,-1.5958,-1.5955,-1.5939,-1.5942,-1.5915,-1.5946,-1.5925,-1.5924,-1.5925,-1.5859,-1.5846,-1.5797,-1.5882,-1.5881,-1.588,0,-1.5959,-1.5953,-1.5918,-1.5921,-1.5916,-1.59,-1.5892,-1.588,-1.5877,-1.5881,-1.5875,-1.5887,-1.5866,-1.5891,-1.5862,-1.5883,-1.5875,-1.5875,-1.5873,-1.5871,-1.5899,-1.5854,-1.5782,-1.5774,-1.587,-1.5871,-1.5871,0,-1.5907,-1.589,-1.5868,-1.5865,-1.5868,-1.5856,-1.5856,-1.5855,-1.5848,-1.584,-1.5835,-1.5825,-1.5818,-1.5809,-1.5817,-1.5835,-1.5786,-1.5813,-1.5788,-1.5787,-1.5776,-1.5776,-1.5701,-1.5772,-1.5772,-1.5772,-1.5772,0,-1.5849,-1.5827,-1.5844,-1.583,-1.5805,-1.582,-1.5795,-1.5797,-1.5796,-1.5781,-1.5799,-1.5785,-1.5797,-1.5784,-1.579,-1.5764,-1.5762,-1.5763,-1.5765,-1.5761,-1.5761,-1.5755,-1.5759,-1.577,-1.5771,-1.5771,-1.5771,0,-1.5787,-1.5798,-1.5774,-1.5779,-1.578,-1.5761,-1.5765,-1.5751,-1.5757,-1.5738,-1.5734,-1.5742,-1.5727,-1.5735,-1.5719,-1.5723,-1.569,-1.5696,-1.5691,-1.5693,-1.5667,-1.5669,-1.5585,-1.5574,-1.5653,-1.5653,-1.5652,0,-1.5749,-1.5733,-1.5736,-1.5729,-1.5729,-1.5716,-1.571,-1.5723,-1.5716,-1.5711,-1.5697,-1.5684,-1.5675,-1.5649,-1.5652,-1.564,-1.5646,-1.5617,-1.5644,-1.564,-1.5644,-1.5645,-1.5643,-1.5611,-1.561,-1.561,-1.5609,0,-1.568,-1.5687,-1.5678,-1.567,-1.5663,-1.5657,-1.5653,-1.5645,-1.5659,-1.5649,-1.5635,-1.5627,-1.5612,-1.5598,-1.5587,-1.5586,-1.5599,-1.5601,-1.5594,-1.559,-1.5587,-1.5587,-1.5676,-1.5602,-1.5603,-1.5603,-1.5604,-1.5604,-1.5628,-1.5615,-1.5616,-1.5605,-1.5604,-1.5599,-1.5587,-1.5591,-1.558,-1.557,-1.5578,-1.5561,-1.5558,-1.5546,-1.5542,-1.5528,-1.5539,-1.553,-1.5527,-1.5524,-1.5521,-1.559,-1.5526,-1.5526,-1.5526,-1.5527,-1.5527,0,-1.556,-1.5562,-1.5552,-1.5546,-1.5537,-1.5553,-1.5549,-1.554,-1.5525,-1.5522,-1.5513,-1.5496,-1.5483,-1.5486,-1.5473,-1.5461,-1.5467,-1.5457,-1.5458,-1.5457,-1.5512,-1.5518,-1.5453,-1.5453,-1.5453,-1.5453,-1.5453,-1.5453,-1.5523,-1.5501,-1.5508,-1.5485,-1.5486,-1.5471,-1.5467,-1.5463,-1.5461,-1.5442,-1.5432,-1.5434,-1.5433,-1.5421,-1.5409,-1.541,-1.5404,-1.5392,-1.5395,-1.5446,-1.5453,-1.546,-1.5466,-1.5391,-1.5391,-1.5341,-1.5341,-1.534]}]]